Starlink 31177

operational
NORAD ID: 58873 Int'l Des: 2024-019 Owner: SPXS Country: US Constellation: starlink
LEOCIRCULAR

关于 Starlink 31177

正在加载描述...

实时位置

正在加载3D地球...

即将过境

高度历史

Altitude vs Time

uPlot chart will show altitude changes over time

两行轨道根数

1 58873U 24019W 25352.07496858 .00000651 00000-0 33177-4 0 9998
2 58873 42.9984 349.5615 0001576 273.6112 86.4560 15.27582095106609
Epoch: Dec 18, 2025 • Age: 32 hours

当前状态

高度 487.2 km
速度 7.63 km/s
星下点 43.04°N, 154.83°W
发射日期 Jan 29, 2024
运行时间 1.8 years
类型 internet

技术详情

分类 Payload
质量 730.00 kg
干质量 700.00 kg
总质量 730.00 kg
长度 0.30 m
直径 4.10 m
跨度 29.00 m
形状 Box + pan
制造商 SPXS
平台类型 Starlink V2M
阶段状态 In Orbit
所有者/国家 SPXS/US

大型星座

Loading constellations...